www.pogodaiklimat.ru

Погода и климат >> Архив погоды >> Россия >> Крым >> Ялта


АРХИВ ПОГОДЫ в Ялте

Время (UTC), дата Ветер
(напр.,м/с)
 
Видим.   Явления Облачность Т
(С)
Тd
(С)
f
(%)
Тe
(С)
Тes
(С)
Комфортность P
(гПа)
Po
(гПа)
Тmin
(С)
Tmax
(С)
R
(мм)
R24
(мм)
S
(см)
06 15.09 В 4 20 км ясно +23.8 +13.6 53 +26 +29 жарко 1021.7 1013.3 +21.0
09 15.09 В 4 20 км 1/1 1000 м
[Cu hum]
+23.0 +13.5 55 +26 +33 жарко 1023.1 1014.7
12 15.09 В 4 20 км 1/1 1000 м
[Cu hum]
+23.3 +12.0 49 +26 +31 жарко 1023.1 1014.7
15 15.09 ЮВ 1 20 км 1/1 1000 м
[Sc diur, vesp]
+20.0 +13.4 66 +23 +24 комфорт 1023.2 1014.7
18 15.09 СЗ 1 20 км 1/1 1000 м
[Sc diur, vesp]
+17.4 +11.8 70 +18 +18 по сезону 1022.6 1014.1 +24.4
21 15.09 СЗ 1 20 км ясно +16.2 +9.6 65 +17 +17 по сезону 1023.3 1014.7
00 16.09 СЗ 2 20 км ясно +16.5 +6.9 53 +17 +17 по сезону 1021.9 1013.3
03 16.09 СЗ 2 20 км ясно +15.1 +5.7 53 +15 +15 прохладно 1019.7 1011.1 +14.8
06 16.09 В 1 20 км ясно +22.1 +3.7 30 +22 +27 комфорт 1020.4 1012.0 +14.8
09 16.09 ЮВ 3 20 км 3/0
[Ci fib]
+23.4 +4.8 30 +23 +31 комфорт 1019.1 1010.7
12 16.09 Ю 2 20 км ясно +23.6 +8.4 38 +24 +32 комфорт 1017.7 1009.3
15 16.09 штиль 0 20 км ясно +21.2 +12.1 56 +23 +24 комфорт 1015.1 1006.7
18 16.09 СЗ 1 20 км ясно +17.3 +9.2 59 +18 +18 по сезону 1015.2 1006.7 +24.3
21 16.09 СЗ 1 20 км ясно +16.5 +7.9 57 +17 +17 по сезону 1015.2 1006.7
00 17.09 СЗ 1 20 км 1/0
[Ci fib]
+16.7 +9.4 62 +18 +18 тепло 1015.2 1006.7
03 17.09 СЗ 1 20 км 1/0
[Ci sp]
+15.7 +9.6 67 +16 +16 прохладно 1013.1 1004.6 +15.7
06 17.09 ЮВ 1 20 км 1/0
[Ci fib]
+21.9 +11.3 51 +24 +28 комфорт 1012.9 1004.6 +15.7
09 17.09 ЮВ 3 20 км 4/0
[Cc]
+25.4 +14.8 52 +28 +37 жарко 1011.9 1003.7
12 17.09 ЮЗ 3 20 км 9/0
[Ac As Cs]
+28.0 +9.6 32 +28 +31 жарко 1011.1 1002.9
15 17.09 ЮЗ 2 20 км 8/3 1000 м
[Cu med, cong Ac As Cc]
+23.9 +15.9 61 +27 +27 жарко 1012.3 1004.0
18 17.09 СЗ 3 20 км 4/0
[Ac lent Ci sp]
+22.4 +12.8 55 +25 +25 комфорт 1011.1 1002.8 +28.8
21 17.09 З 2 20 км 8/0
[Ac trans Cc]
+22.8 +11.8 50 +25 +25 комфорт 1012.3 1004.0
00 18.09 ЮЗ 1 20 км 6/0
[Ac As]
+21.6 +10.1 48 +23 +23 комфорт 1012.4 1004.0
03 18.09 З 1 20 км 8/0
[Ac lent Cc]
+21.0 +9.9 49 +24 +24 комфорт 1011.2 1002.8 +20.2
06 18.09 ЮЗ 3 20 км 1/0
[Ci fib]
+25.4 +16.3 57 +29 +32 душно 1010.6 1002.4 +20.2
09 18.09 ЮЗ 3 20 км 2 балла +27.1 +19.2 62 +33 +40 очень
душно
1010.9 1002.7
12 18.09 СЗ 2 20 км 3/1 1000 м
[Cu hum Ac lent Ci sp]
+29.6 +18.4 51 +34 +41 очень
душно
1010.8 1002.7
15 18.09 ЮЗ 3
{10}
20 км 4/1 1000 м
[Sc diur, vesp Ac lent Cc]
+23.2 +12.0 49 +26 +26 жарко 1011.2 1002.9
18 18.09 ЮЗ 3 20 км 8/8 1000 м
[Sc Ci sp]
+21.0 +9.2 47 +23 +23 комфорт 1013.8 1005.4 +29.8
21 18.09 СЗ 2 20 км 9/0
[Ac lent Ci sp]
+18.5 +5.7 43 +19 +19 тепло 1017.8 1009.3
00 19.09 СЗ 3 20 км 8/0
[Ac lent]
+17.1 +4.1 42 +17 +17 по сезону 1019.3 1010.7
03 19.09 СЗ 1 20 км 4/1 1000 м
[Sc Ac trans Ci fib]
+15.9 +2.4 40 +17 +17 по сезону 1019.4 1010.8 +15.9
06 19.09 ЮВ 2 20 км 4/0
[Ac trans Ci sp]
+22.1 -1.3 21 +21 +23 комфорт 1021.8 1013.3 +15.7
09 19.09 ЮВ 2 20 км 9/0
[Ac lent]
+19.6 +8.6 49 +21 +22 комфорт 1021.8 1013.3
12 19.09 ЮВ 2 20 км 8/1 1000 м
[Cu med, cong Ac As]
+21.2 +9.7 48 +23 +25 комфорт 1021.8 1013.3
15 19.09 ЮВ 1 20 км 9/3 1000 м
[Sc diur, vesp Ac As]
+18.0 +11.3 65 +19 +19 по сезону 1021.8 1013.3
18 19.09 СЗ 1 20 км 6/3 1000 м
[Sc diur, vesp Ac As]
+15.9 +11.3 74 +17 +17 по сезону 1020.8 1012.2 +22.2
21 19.09 СЗ 1 20 км 10/1 1000 м
[Sc Ac und]
+16.0 +11.0 72 +17 +17 по сезону 1021.9 1013.3
00 20.09 СЗ 2 10 км слаб. ливневой дождь 10/10 1000 м
[Cb cap]
+15.5 +9.8 69 +15 +15 по сезону 1018.9 1010.3
03 20.09 СЗ 1 10 км слаб. ливневой дождь 10/10 1000 м
[Cb cap]
+13.5 +7.9 69 +14 +14 прохладно 1019.4 1010.7 +12.6 0.4
06 20.09 СЗ 2 10 км слаб. ливневой дождь 10/10 1000 м
[Cb cap]
+11.1 +8.8 86 +10 +10 очень
холодно
1019.4 1010.7 +11.1 2
09 20.09 З 1 10 км слаб. ливневой дождь 10/10 1000 м
[Cb cap]
+11.0 +9.7 92 +11 +11 очень
холодно
1019.4 1010.7
12 20.09 ЮЗ 1 10 км слаб. ливневой дождь 10/10 1000 м
[Cb cap]
+11.9 +9.3 84 +12 +12 очень
холодно
1018.0 1009.3
15 20.09 СЗ 1 20 км {ливн. осадки} 9/5 1000 м
[Cb cap Ac As Ci sp]
+12.8 +10.5 86 +13 +13 холодно 1017.9 1009.3 7
18 20.09 З 1 20 км {ливн. осадки} 1/1 1000 м
[Sc]
+11.6 +7.9 78 +12 +12 холодно 1019.8 1011.1 +12.8 6
21 20.09 С 1 20 км {ливн. осадки} 4/3 1000 м
[Cb calv Ac trans]
+12.1 +5.2 63 +12 +12 прохладно 1019.3 1010.6
00 21.09 СЗ 2 20 км зарница {ливн. осадки} 3/3 1000 м
[Cb calv]
+12.0 +4.0 58 +11 +11 холодно 1019.3 1010.6
03 21.09 СЗ 3
{10}
20 км 8/8 600 м
[Cb calv]
+10.9 +5.0 67 +9 +9 очень
холодно
1019.5 1010.8 +10.6 0.1
06 21.09 С 2 20 км 8/8 1000 м
[Cb calv]
+13.3 +0.8 42 +13 +14 холодно 1020.6 1011.9 +10.6 0.1
09 21.09 С 3 20 км 5/3 1000 м
[Cb calv Ac lent]
+16.8 0.0 32 +17 +21 прохладно 1021.9 1013.3
12 21.09 СЗ 4
{10}
20 км 4/4 1000 м
[Cu med, cong]
+16.6 -0.8 31 +16 +19 холодно 1021.6 1013.0
15 21.09 СЗ 2 20 км 3/3 1000 м
[Sc diur, vesp]
+13.7 -0.0 39 +13 +14 холодно 1023.4 1014.7
18 21.09 ЮЗ 1 20 км ясно +11.1 -0.1 46 +11 +11 холодно 1024.8 1016.0 +18.1
21 21.09 штиль 0 20 км 1/0
[Ci fib]
+11.3 +1.5 51 +11 +11 холодно 1026.1 1017.3
00 22.09 СЗ 1 20 км ясно +11.3 +0.7 48 +12 +12 прохладно 1026.1 1017.3
03 22.09 СЗ 2 20 км 3/1 1000 м
[Sc Ci fib]
+10.8 +1.6 53 +10 +10 очень
холодно
1024.5 1015.7 +10.3

 

Местоположение метеостанции Ялта (Крым, Россия): широта 44.48 долгота 34.17 высота над уровнем моря 72 м.

В архиве по умолчанию представлена погода в Ялте за последнюю неделю. Архивные данные за месяц целиком и за предыдущие месяцы, начиная с января 2011 года, Вы можете получить, выбрав интересующий диапазон дат из раскрывающегося списка и нажав кнопку "Ввод!".


*Определитесь, кто Вы:
робот инопланетянин человек

Внимание! Время в таблицах - всемирное. Для получения местного времени необходимо прибавить поправку, которая равна 3 ч.

Смотрите также архив погоды в соседних городах и на ближайших метеорологических станциях:

Погода на Ай-Петри (Крым, Россия) (7 км)
Погода в Никитском саду (Крым, Россия) (8 км)
Погода в Алуште (Крым, Россия) (28 км)
Погода на Ангарском Перевале (Крым, Россия) (33 км)
Погода в Почтовом (Крым, Россия) (43 км)
Погода в Симферополе город (Крым, Россия) (52 км)
Погода в Севастополе (город Севастополь, Россия) (53 км)
Погода в Симферополе (Крым, Россия) (63 км)
Погода в Херсонесском Маяке (город Севастополь, Россия) (64 км)
Погода в Белогорске (Крым, Россия) (72 км)

Пояснения к столбцам:

Ветер - указаны скорость ветра в м/с - средняя за 10 мин, порывы в срок и между сроками (в фигурных скобках) и направление, откуда дует ветер: С - северный, СВ - северо-восточный, В - восточный, ЮВ - юго-восточный, Ю - южный, ЮЗ - юго-западный, З - западный, СЗ - северо-западный.
Видимость - горизонтальная дальность видимости в метрах или километрах. При видимости от 1 до 10 км при отсутствии осадков обычно наблюдается дымка, при ухудшении видимости до 1 км и менее - туман. В сухую погоду видимость может ухудшаться дымом, пылью или мглою.
Явления - указаны атмосферные явления, наблюдавшиеся в срок или в последний час перед сроком; фигурными скобками обозначены явления, наблюдавшиеся между сроками (за 1-3 часа до срока); квадратными скобками обозначены град или гололедные отложения с указанием их диаметра в мм.
Облачность - указаны через наклонную черту общая и нижняя облачность в баллах и высота нижней границы облаков в метрах; квадратными скобками обозначены формы облаков: Ci - перистые, Cs - перисто-слоистые, Cc - перисто-кучевые, Ac - высококучевые, As - высокослоистые, Sc - слоисто-кучевые, Ns - слоисто-дождевые, Cu - кучевые, Cb - кучево-дождевые. Подробнее классификацию облаков см. в Атласе облаков (PDF).
T - Температура воздуха - температура, измеренная на высоте 2 м над землей.
Td - Температура точки росы - температура, при понижении до которой содержащийся в воздухе водяной пар достигнет насыщения.
f - Относительная влажность воздуха - влажноcть воздуха, измеренная на высоте 2 м над землей.
Te - Эффективная температура - температура, которую ощущает одетый по сезону человек в тени. Характеристика душности погоды. При расчете учитывается влияние влажности воздуха и скорости ветра на теплоощущения человека.
Tes - Эффективная температура на солнце - температура, которую ощущает человек, с поправкой на солнечный нагрев. Характеристика знойности погоды. Зависит от высоты солнца над горизонтом, облачности и скорости ветра. Ночью, в пасмурную погоду, а также при ветре 12 м/с и более поправка равна нулю.
P - Атмосферное давление - приведенное к уровню моря атмосферное давление.
Po - Атмосферное давление - измеренное на уровне метеостанции атмосферное давление.
Tmin - Минимальная температура - минимум температуры воздуха на высоте 2 м над землей.
Tmax - Максимальная температура - максимум температуры воздуха на высоте 2 м над землей.
R - Количество осадков - Количество выпавших осадков за период времени, мм. При наведении курсора мыши на число - период времени, за который выпало указанное количество осадков.
R24 - Количество осадков - Количество выпавших осадков за 24 часа, мм.
S - Снежный покров - Высота снежного покрова, см. При наведении курсора мыши на число - состояние снежного покрова и степень покрытия местности в баллах.